| time (UTC) | temp F | wind direction | speed MPH | gust MPH | rain 1hr in | rain 24hr in | rain mn in | humidity % | barometer mb |
| 20260507070541 | 62 | 130 | 1.0 | 3.0 | 0.00 | 0.01 | 0.00 | 43 | 1016.1 |
| 20260507070043 | 63 | 135 | 2.0 | 3.0 | 0.00 | 0.01 | 0.00 | 44 | 1016.1 |
| 20260507065542 | 63 | 354 | 1.0 | 3.0 | 0.00 | 0.01 | 0.00 | 48 | 1016.1 |
| 20260507065043 | 61 | 321 | 1.0 | 2.0 | 0.00 | 0.01 | 0.00 | 50 | 1016.1 |
| 20260507064542 | 60 | 315 | 2.0 | 3.0 | 0.00 | 0.01 | 0.00 | 50 | 1016.1 |
| 20260507064041 | 60 | 270 | 1.0 | 2.0 | 0.00 | 0.01 | 0.00 | 51 | 1016.0 |
| 20260507063543 | 60 | 313 | 3.0 | 5.0 | 0.00 | 0.01 | 0.00 | 48 | 1016.0 |
| 20260507063042 | 60 | 250 | 0.0 | 0.0 | 0.00 | 0.01 | 0.00 | 52 | 1016.0 |
| 20260507062541 | 59 | 225 | 0.0 | 1.0 | 0.00 | 0.01 | 0.00 | 54 | 1015.9 |
| 20260507062043 | 57 | 236 | 0.0 | 1.0 | 0.00 | 0.01 | 0.00 | 54 | 1015.9 |
| 20260507061542 | 55 | 270 | 2.0 | 3.0 | 0.00 | 0.01 | 0.00 | 56 | 1015.9 |
| 20260507061041 | 54 | 267 | 5.0 | 6.0 | 0.00 | 0.01 | 0.00 | 58 | 1015.8 |
| 20260507060543 | 56 | 270 | 5.0 | 6.0 | 0.00 | 0.02 | 0.00 | 53 | 1015.9 |
| 20260507060041 | 58 | 270 | 2.0 | 3.0 | 0.00 | 0.02 | 0.00 | 56 | 1015.8 |
| 20260507055542 | 59 | 317 | 1.0 | 2.0 | 0.00 | 0.02 | 0.00 | 60 | 1016.0 |
| 20260507055042 | 57 | 225 | 0.0 | 0.0 | 0.00 | 0.02 | 0.00 | 63 | 1015.8 |
| 20260507054541 | 55 | 315 | 0.0 | 0.0 | 0.00 | 0.02 | 0.00 | 66 | 1015.8 |
| 20260507054043 | 53 | 315 | 1.0 | 2.0 | 0.00 | 0.02 | 0.00 | 74 | 1015.8 |
| 20260507053542 | 50 | 180 | 0.0 | 1.0 | 0.00 | 0.02 | 0.00 | 84 | 1015.8 |
| 20260507053042 | 47 | 180 | 0.0 | 1.0 | 0.00 | 0.02 | 0.00 | 88 | 1015.7 |
| 20260507052541 | 44 | 180 | 0.0 | 0.0 | 0.00 | 0.02 | 0.00 | 92 | 1015.6 |
| 20260507052042 | 43 | 180 | 1.0 | 2.0 | 0.00 | 0.04 | 0.00 | 91 | 1015.6 |
| 20260507051542 | 42 | 225 | 0.0 | 0.0 | 0.00 | 0.04 | 0.00 | 91 | 1015.5 |
| 20260507051041 | 42 | 225 | 0.0 | 0.0 | 0.00 | 0.05 | 0.00 | 91 | 1015.4 |
| 20260507050543 | 42 | 45 | 1.0 | 2.0 | 0.00 | 0.06 | 0.00 | 90 | 1015.4 |
| 20260507050042 | 41 | 180 | 0.0 | 1.0 | 0.00 | 0.07 | 0.00 | 90 | 1015.4 |
| 20260507045541 | 41 | 180 | 0.0 | 0.0 | 0.00 | 0.08 | 0.00 | 90 | 1015.3 |
| 20260507045041 | 41 | 180 | 1.0 | 1.0 | 0.00 | 0.09 | 0.00 | 89 | 1015.2 |
| 20260507044542 | 42 | 180 | 0.0 | 1.0 | 0.00 | 0.09 | 0.00 | 89 | 1015.1 |
| 20260507044042 | 42 | 180 | 0.0 | 0.0 | 0.00 | 0.11 | 0.00 | 89 | 1015.2 |
| 20260507043541 | 42 | 152 | 1.0 | 2.0 | 0.00 | 0.12 | 0.00 | 88 | 1015.0 |
| 20260507043043 | 42 | 315 | 0.0 | 0.0 | 0.00 | 0.13 | 0.00 | 88 | 1015.0 |
| 20260507042542 | 42 | 135 | 2.0 | 3.0 | 0.00 | 0.14 | 0.00 | 88 | 1014.9 |
| 20260507042041 | 42 | 169 | 3.0 | 6.0 | 0.00 | 0.15 | 0.00 | 87 | 1015.0 |
| 20260507041543 | 42 | 158 | 3.0 | 6.0 | 0.00 | 0.15 | 0.00 | 86 | 1014.8 |
| 20260507041042 | 43 | 266 | 1.0 | 2.0 | 0.00 | 0.17 | 0.00 | 86 | 1014.9 |
| 20260507040542 | 43 | 135 | 2.0 | 3.0 | 0.00 | 0.18 | 0.00 | 86 | 1014.9 |
| 20260507035547 | 43 | 138 | 3.0 | 3.0 | 0.00 | 0.18 | 0.00 | 85 | 1014.8 |
| 20260507035046 | 43 | 180 | 0.0 | 1.0 | 0.00 | 0.18 | 0.00 | 85 | 1014.8 |
| 20260507034548 | 44 | 135 | 0.0 | 0.0 | 0.00 | 0.18 | 0.00 | 85 | 1014.9 |
| 20260507034047 | 43 | 173 | 0.0 | 5.0 | 0.00 | 0.18 | 0.00 | 85 | 1014.8 |
| 20260507033547 | 44 | 229 | 0.0 | 1.0 | 0.00 | 0.18 | 0.00 | 85 | 1014.9 |
| 20260507033046 | 44 | 268 | 0.0 | 1.0 | 0.00 | 0.18 | 0.00 | 85 | 1014.9 |
| 20260507032548 | 44 | 180 | 1.0 | 3.0 | 0.00 | 0.18 | 0.00 | 86 | 1014.9 |
| 20260507032047 | 44 | 180 | 1.0 | 2.0 | 0.00 | 0.18 | 0.00 | 86 | 1014.9 |
| 20260507031548 | 44 | 193 | 0.0 | 1.0 | 0.00 | 0.19 | 0.00 | 86 | 1014.9 |
| 20260507031047 | 44 | 246 | 0.0 | 1.0 | 0.00 | 0.19 | 0.00 | 86 | 1015.1 |
| 20260507030547 | 44 | 180 | 2.0 | 3.0 | 0.00 | 0.19 | 0.00 | 85 | 1015.0 |
| 20260507030046 | 44 | 135 | 2.0 | 3.0 | 0.00 | 0.19 | 0.00 | 84 | 1015.1 |
| 20260507025547 | 44 | 180 | 0.0 | 1.0 | 0.00 | 0.19 | 0.00 | 84 | 1015.1 |
| 20260507025047 | 44 | 295 | 1.0 | 2.0 | 0.00 | 0.19 | 0.00 | 84 | 1015.2 |
| 20260507024546 | 45 | 158 | 0.0 | 0.0 | 0.00 | 0.19 | 0.00 | 85 | 1015.2 |
| 20260507024046 | 45 | 158 | 0.0 | 1.0 | 0.00 | 0.19 | 0.00 | 87 | 1015.1 |
| 20260507023546 | 46 | 180 | 0.0 | 1.0 | 0.00 | 0.19 | 0.00 | 84 | 1015.2 |
| 20260507023046 | 45 | 270 | 3.0 | 7.0 | 0.00 | 0.19 | 0.00 | 91 | 1015.1 |
| 20260507022547 | 43 | 192 | 1.0 | 2.0 | 0.00 | 0.19 | 0.00 | 92 | 1015.2 |
| 20260507022047 | 43 | 135 | 2.0 | 3.0 | 0.00 | 0.19 | 0.00 | 92 | 1015.1 |
| 20260507021546 | 43 | 192 | 1.0 | 2.0 | 0.00 | 0.19 | 0.00 | 92 | 1015.1 |
| 20260507021048 | 42 | 180 | 1.0 | 2.0 | 0.00 | 0.19 | 0.00 | 91 | 1015.1 |
| 20260507020547 | 42 | 214 | 1.0 | 2.0 | 0.00 | 0.19 | 0.00 | 91 | 1014.9 |
| 20260507020046 | 42 | 180 | 0.0 | 0.0 | 0.00 | 0.19 | 0.00 | 91 | 1015.0 |
| 20260507015547 | 42 | 135 | 0.0 | 1.0 | 0.00 | 0.19 | 0.00 | 91 | 1015.0 |
| 20260507015046 | 42 | 135 | 1.0 | 1.0 | 0.00 | 0.19 | 0.00 | 90 | 1014.9 |
| 20260507014548 | 42 | 135 | 0.0 | 0.0 | 0.00 | 0.19 | 0.00 | 90 | 1014.8 |
| 20260507014047 | 43 | 98 | 1.0 | 2.0 | 0.00 | 0.19 | 0.00 | 90 | 1014.9 |
| 20260507013548 | 42 | 225 | 1.0 | 2.0 | 0.00 | 0.19 | 0.00 | 90 | 1014.8 |
| 20260507013047 | 42 | 180 | 0.0 | 1.0 | 0.00 | 0.19 | 0.00 | 90 | 1014.8 |
| 20260507012548 | 42 | 270 | 0.0 | 0.0 | 0.00 | 0.19 | 0.00 | 90 | 1014.6 |
| 20260507012048 | 43 | 22 | 0.0 | 1.0 | 0.00 | 0.19 | 0.00 | 90 | 1014.7 |
| 20260507011549 | 43 | 135 | 1.0 | 3.0 | 0.00 | 0.19 | 0.00 | 90 | 1014.5 |
| 20260507011048 | 43 | 212 | 1.0 | 1.0 | 0.00 | 0.19 | 0.00 | 90 | 1014.5 |
| 20260507010549 | 43 | 31 | 1.0 | 2.0 | 0.00 | 0.19 | 0.00 | 90 | 1014.5 |
| 20260507010047 | 43 | 135 | 1.0 | 2.0 | 0.00 | 0.19 | 0.00 | 90 | 1014.4 |
| 20260507005549 | 43 | 180 | 0.0 | 1.0 | 0.00 | 0.19 | 0.00 | 90 | 1014.4 |
| 20260507005048 | 44 | 0 | 0.0 | 1.0 | 0.00 | 0.19 | 0.00 | 90 | 1014.3 |
| 20260507004548 | 44 | 159 | 3.0 | 6.0 | 0.00 | 0.19 | 0.00 | 90 | 1014.3 |
| 20260507004048 | 44 | 135 | 1.0 | 1.0 | 0.00 | 0.19 | 0.00 | 89 | 1014.3 |
| 20260507003547 | 44 | 186 | 1.0 | 3.0 | 0.00 | 0.19 | 0.00 | 89 | 1014.3 |
| 20260507003047 | 44 | 135 | 0.0 | 0.0 | 0.00 | 0.19 | 0.00 | 89 | 1014.2 |
| 20260507002548 | 44 | 135 | 1.0 | 2.0 | 0.00 | 0.19 | 0.00 | 89 | 1014.2 |
| 20260507002048 | 44 | 225 | 0.0 | 1.0 | 0.00 | 0.19 | 0.00 | 89 | 1014.2 |
| 20260507001547 | 44 | 147 | 3.0 | 3.0 | 0.00 | 0.19 | 0.00 | 89 | 1014.2 |
| 20260507001048 | 44 | 135 | 0.0 | 2.0 | 0.00 | 0.19 | 0.00 | 89 | 1014.3 |
| 20260507000548 | 45 | 135 | 5.0 | 6.0 | 0.00 | 0.19 | 0.00 | 89 | 1014.3 |
| 20260507000047 | 45 | 135 | 2.0 | 3.0 | 0.00 | 0.19 | 0.00 | 89 | 1014.2 |
| 20260506235547 | 44 | 135 | 0.0 | 1.0 | 0.00 | 0.19 | 0.00 | 89 | 1014.3 |
| 20260506235047 | 44 | 158 | 2.0 | 5.0 | 0.00 | 0.19 | 0.00 | 89 | 1014.3 |
| 20260506234547 | 45 | 135 | 0.0 | 1.0 | 0.00 | 0.19 | 0.00 | 89 | 1014.2 |
| 20260506234048 | 45 | 135 | 0.0 | 2.0 | 0.00 | 0.19 | 0.00 | 90 | 1014.1 |
| 20260506233548 | 45 | 135 | 0.0 | 0.0 | 0.00 | 0.19 | 0.00 | 90 | 1014.1 |
| 20260506233047 | 45 | 135 | 3.0 | 3.0 | 0.00 | 0.19 | 0.00 | 90 | 1014.1 |
| 20260506232547 | 45 | 135 | 1.0 | 2.0 | 0.00 | 0.19 | 0.00 | 89 | 1014.3 |
| 20260506232047 | 45 | 158 | 1.0 | 2.0 | 0.00 | 0.19 | 0.00 | 88 | 1014.2 |
| 20260506231547 | 45 | 158 | 1.0 | 3.0 | 0.00 | 0.19 | 0.00 | 87 | 1014.2 |
| 20260506231048 | 46 | 143 | 0.0 | 1.0 | 0.00 | 0.19 | 0.00 | 81 | 1014.3 |
| 20260506230548 | 46 | 135 | 1.0 | 3.0 | 0.00 | 0.19 | 0.00 | 81 | 1014.4 |
| 20260506230047 | 46 | 135 | 2.0 | 3.0 | 0.00 | 0.19 | 0.00 | 80 | 1014.3 |
| 20260506225548 | 46 | 135 | 0.0 | 1.0 | 0.00 | 0.19 | 0.00 | 80 | 1014.3 |
| 20260506225047 | 47 | 135 | 0.0 | 1.0 | 0.00 | 0.19 | 0.00 | 80 | 1014.4 |
| 20260506224547 | 47 | 143 | 2.0 | 3.0 | 0.00 | 0.19 | 0.00 | 80 | 1014.3 |
| 20260506224048 | 47 | 158 | 3.0 | 6.0 | 0.00 | 0.19 | 0.00 | 80 | 1014.3 |
| 20260506223548 | 47 | 158 | 0.0 | 1.0 | 0.00 | 0.19 | 0.00 | 80 | 1014.3 |
| 20260506223047 | 47 | 152 | 0.0 | 1.0 | 0.00 | 0.19 | 0.00 | 80 | 1014.4 |
| 20260506222548 | 47 | 152 | 2.0 | 3.0 | 0.00 | 0.19 | 0.00 | 77 | 1014.2 |
| 20260506222048 | 47 | 135 | 0.0 | 1.0 | 0.00 | 0.19 | 0.00 | 76 | 1014.0 |
| 20260506221547 | 48 | 135 | 0.0 | 0.0 | 0.00 | 0.19 | 0.00 | 75 | 1014.2 |
| 20260506221047 | 48 | 135 | 1.0 | 2.0 | 0.00 | 0.19 | 0.00 | 76 | 1014.1 |
| 20260506220548 | 48 | 137 | 3.0 | 6.0 | 0.00 | 0.19 | 0.00 | 75 | 1014.1 |
| 20260506220047 | 48 | 158 | 2.0 | 3.0 | 0.00 | 0.19 | 0.00 | 74 | 1014.1 |
| 20260506215548 | 48 | 158 | 1.0 | 1.0 | 0.00 | 0.19 | 0.19 | 74 | 1014.0 |
| 20260506215048 | 49 | 140 | 0.0 | 1.0 | 0.00 | 0.19 | 0.19 | 73 | 1014.0 |
| 20260506214547 | 49 | 135 | 2.0 | 3.0 | 0.00 | 0.19 | 0.19 | 72 | 1014.0 |
| 20260506214047 | 50 | 158 | 2.0 | 3.0 | 0.00 | 0.19 | 0.19 | 72 | 1014.0 |
| 20260506213548 | 50 | 135 | 0.0 | 1.0 | 0.00 | 0.19 | 0.19 | 71 | 1014.0 |
| 20260506213048 | 50 | 135 | 2.0 | 3.0 | 0.00 | 0.19 | 0.19 | 72 | 1013.9 |
| 20260506212547 | 50 | 136 | 2.0 | 3.0 | 0.00 | 0.19 | 0.19 | 71 | 1014.0 |
| 20260506212047 | 50 | 153 | 2.0 | 3.0 | 0.00 | 0.19 | 0.19 | 70 | 1013.8 |
| 20260506211548 | 51 | 135 | 2.0 | 3.0 | 0.00 | 0.19 | 0.19 | 70 | 1013.8 |
| 20260506211047 | 51 | 155 | 2.0 | 3.0 | 0.00 | 0.19 | 0.19 | 67 | 1013.9 |
| 20260506210548 | 52 | 146 | 3.0 | 5.0 | 0.00 | 0.19 | 0.19 | 67 | 1013.9 |
| 20260506210048 | 52 | 135 | 2.0 | 3.0 | 0.00 | 0.19 | 0.19 | 66 | 1013.8 |
| 20260506205547 | 53 | 135 | 0.0 | 0.0 | 0.00 | 0.19 | 0.19 | 64 | 1013.9 |
| 20260506205047 | 53 | 135 | 0.0 | 1.0 | 0.00 | 0.19 | 0.19 | 63 | 1013.8 |
| 20260506204548 | 54 | 154 | 2.0 | 6.0 | 0.00 | 0.19 | 0.19 | 62 | 1013.7 |
| 20260506204047 | 55 | 135 | 0.0 | 2.0 | 0.00 | 0.19 | 0.19 | 58 | 1013.5 |
| 20260506203547 | 56 | 112 | 0.0 | 0.0 | 0.00 | 0.19 | 0.19 | 53 | 1013.5 |
| 20260506203047 | 57 | 112 | 1.0 | 2.0 | 0.00 | 0.19 | 0.19 | 52 | 1013.2 |
| 20260506202548 | 57 | 129 | 1.0 | 2.0 | 0.00 | 0.19 | 0.19 | 50 | 1013.3 |
| 20260506202047 | 57 | 135 | 7.0 | 8.0 | 0.00 | 0.19 | 0.19 | 47 | 1013.2 |
| 20260506201547 | 58 | 158 | 2.0 | 3.0 | 0.00 | 0.19 | 0.19 | 45 | 1012.9 |
| 20260506201048 | 59 | 135 | 3.0 | 5.0 | 0.00 | 0.19 | 0.19 | 44 | 1012.9 |
| 20260506200548 | 58 | 135 | 7.0 | 9.0 | 0.00 | 0.19 | 0.19 | 45 | 1012.7 |
| 20260506200047 | 58 | 135 | 5.0 | 6.0 | 0.00 | 0.19 | 0.19 | 45 | 1012.6 |
| 20260506195548 | 58 | 118 | 2.0 | 3.0 | 0.00 | 0.19 | 0.19 | 45 | 1012.6 |
| 20260506195048 | 59 | 158 | 2.0 | 3.0 | 0.00 | 0.19 | 0.19 | 42 | 1012.5 |
| 20260506194547 | 59 | 147 | 2.0 | 3.0 | 0.00 | 0.19 | 0.19 | 42 | 1012.4 |
| 20260506194047 | 60 | 152 | 1.0 | 2.0 | 0.00 | 0.19 | 0.19 | 42 | 1012.3 |
| 20260506193547 | 60 | 135 | 5.0 | 10.0 | 0.00 | 0.19 | 0.19 | 41 | 1012.1 |
| 20260506193048 | 60 | 135 | 3.0 | 7.0 | 0.00 | 0.19 | 0.19 | 41 | 1012.0 |
| 20260506192548 | 60 | 135 | 6.0 | 8.0 | 0.00 | 0.19 | 0.19 | 41 | 1011.9 |
| 20260506192047 | 60 | 135 | 5.0 | 6.0 | 0.00 | 0.19 | 0.19 | 42 | 1011.8 |
| 20260506191547 | 60 | 135 | 2.0 | 3.0 | 0.00 | 0.19 | 0.19 | 41 | 1011.6 |
| 20260506191048 | 60 | 135 | 7.0 | 8.0 | 0.00 | 0.19 | 0.19 | 41 | 1011.6 |
| 20260506190548 | 60 | 135 | 7.0 | 10.0 | 0.00 | 0.19 | 0.19 | 41 | 1011.6 |
| 20260506190047 | 61 | 135 | 6.0 | 7.0 | 0.00 | 0.19 | 0.19 | 40 | 1011.5 |
| 20260506185547 | 61 | 135 | 2.0 | 7.0 | 0.00 | 0.19 | 0.19 | 39 | 1011.5 |
| 20260506185047 | 61 | 135 | 8.0 | 14.0 | 0.00 | 0.19 | 0.19 | 39 | 1011.5 |
| 20260506184546 | 61 | 138 | 2.0 | 5.0 | 0.00 | 0.19 | 0.19 | 38 | 1011.3 |
| 20260506184048 | 61 | 135 | 5.0 | 9.0 | 0.00 | 0.19 | 0.19 | 37 | 1011.2 |
| 20260506183547 | 62 | 135 | 6.0 | 8.0 | 0.00 | 0.19 | 0.19 | 37 | 1011.2 |
| 20260506183048 | 61 | 135 | 5.0 | 12.0 | 0.00 | 0.19 | 0.19 | 37 | 1011.1 |
| 20260506182547 | 61 | 135 | 3.0 | 6.0 | 0.00 | 0.19 | 0.19 | 40 | 1011.0 |
| 20260506182047 | 62 | 135 | 5.0 | 6.0 | 0.00 | 0.19 | 0.19 | 40 | 1010.8 |
| 20260506181548 | 62 | 135 | 7.0 | 8.0 | 0.00 | 0.19 | 0.19 | 40 | 1010.8 |
| 20260506181047 | 62 | 135 | 8.0 | 12.0 | 0.00 | 0.19 | 0.19 | 37 | 1010.8 |
| 20260506180548 | 62 | 138 | 8.0 | 12.0 | 0.00 | 0.19 | 0.19 | 37 | 1010.6 |
| 20260506180048 | 63 | 135 | 6.0 | 6.0 | 0.00 | 0.19 | 0.19 | 36 | 1010.6 |
| 20260506175547 | 63 | 135 | 2.0 | 3.0 | 0.00 | 0.19 | 0.19 | 35 | 1010.5 |
| 20260506175048 | 63 | 135 | 3.0 | 6.0 | 0.00 | 0.19 | 0.19 | 35 | 1010.4 |
| 20260506174548 | 63 | 135 | 7.0 | 10.0 | 0.00 | 0.19 | 0.19 | 34 | 1010.5 |
| 20260506174047 | 64 | 136 | 3.0 | 10.0 | 0.00 | 0.19 | 0.19 | 31 | 1010.5 |
| 20260506173547 | 65 | 135 | 8.0 | 9.0 | 0.00 | 0.19 | 0.19 | 30 | 1010.2 |
| 20260506173048 | 65 | 135 | 12.0 | 20.0 | 0.00 | 0.19 | 0.19 | 30 | 1010.2 |
| 20260506172548 | 65 | 152 | 10.0 | 17.0 | 0.00 | 0.19 | 0.19 | 30 | 1010.2 |
| 20260506172047 | 65 | 153 | 14.0 | 21.0 | 0.00 | 0.19 | 0.19 | 30 | 1010.2 |
| 20260506171547 | 66 | 135 | 9.0 | 12.0 | 0.00 | 0.19 | 0.19 | 30 | 1010.1 |
| 20260506171048 | 66 | 135 | 12.0 | 18.0 | 0.00 | 0.19 | 0.19 | 30 | 1010.1 |
| 20260506170548 | 66 | 135 | 14.0 | 24.0 | 0.00 | 0.19 | 0.19 | 30 | 1009.9 |
| 20260506170047 | 67 | 135 | 12.0 | 15.0 | 0.00 | 0.19 | 0.19 | 30 | 1009.9 |
| 20260506165548 | 66 | 135 | 13.0 | 17.0 | 0.00 | 0.19 | 0.19 | 30 | 1009.7 |
| 20260506165048 | 67 | 135 | 14.0 | 17.0 | 0.00 | 0.19 | 0.19 | 30 | 1009.7 |
| 20260506164547 | 66 | 135 | 18.0 | 29.0 | 0.00 | 0.19 | 0.19 | 30 | 1009.6 |
| 20260506164047 | 68 | 135 | 16.0 | 21.0 | 0.00 | 0.19 | 0.19 | 30 | 1009.7 |
| 20260506163548 | 69 | 135 | 15.0 | 21.0 | 0.00 | 0.19 | 0.19 | 31 | 1009.6 |
| 20260506163048 | 71 | 152 | 8.0 | 15.0 | 0.00 | 0.19 | 0.19 | 39 | 1009.5 |
| 20260506162547 | 72 | 135 | 5.0 | 6.0 | 0.00 | 0.19 | 0.19 | 42 | 1009.5 |
| 20260506162047 | 72 | 117 | 2.0 | 3.0 | 0.00 | 0.19 | 0.19 | 45 | 1009.3 |
| 20260506161548 | 70 | 145 | 1.0 | 3.0 | 0.00 | 0.19 | 0.19 | 47 | 1009.4 |
| 20260506161048 | 69 | 143 | 5.0 | 7.0 | 0.00 | 0.19 | 0.19 | 45 | 1009.2 |
| 20260506160547 | 68 | 133 | 3.0 | 5.0 | 0.00 | 0.19 | 0.19 | 47 | 1009.2 |
| 20260506155550 | 68 | 158 | 3.0 | 6.0 | 0.00 | 0.19 | 0.19 | 48 | 1009.2 |
| 20260506155052 | 69 | 147 | 7.0 | 8.0 | 0.00 | 0.19 | 0.19 | 48 | 1009.2 |
| 20260506154552 | 68 | 122 | 6.0 | 8.0 | 0.00 | 0.19 | 0.19 | 50 | 1009.2 |
| 20260506154051 | 69 | 130 | 7.0 | 10.0 | 0.00 | 0.19 | 0.19 | 46 | 1009.3 |
| 20260506153550 | 70 | 135 | 3.0 | 6.0 | 0.00 | 0.19 | 0.19 | 39 | 1009.2 |
| 20260506153052 | 69 | 143 | 3.0 | 5.0 | 0.00 | 0.19 | 0.19 | 40 | 1009.3 |
| 20260506152551 | 68 | 112 | 5.0 | 6.0 | 0.00 | 0.19 | 0.19 | 48 | 1009.3 |
| 20260506152051 | 67 | 120 | 7.0 | 9.0 | 0.00 | 0.19 | 0.19 | 50 | 1009.3 |
| 20260506151552 | 67 | 112 | 3.0 | 5.0 | 0.00 | 0.19 | 0.19 | 38 | 1009.5 |
| 20260506151051 | 67 | 136 | 1.0 | 3.0 | 0.00 | 0.19 | 0.19 | 31 | 1009.4 |
| 20260506150551 | 68 | 146 | 8.0 | 12.0 | 0.00 | 0.19 | 0.19 | 30 | 1009.5 |
| 20260506150052 | 70 | 135 | 8.0 | 10.0 | 0.00 | 0.19 | 0.19 | 30 | 1009.4 |
| 20260506145552 | 70 | 135 | 3.0 | 5.0 | 0.00 | 0.19 | 0.19 | 30 | 1009.3 |
| 20260506145051 | 69 | 135 | 7.0 | 9.0 | 0.00 | 0.19 | 0.19 | 30 | 1009.5 |
| 20260506144551 | 70 | 135 | 7.0 | 10.0 | 0.00 | 0.19 | 0.19 | 28 | 1009.5 |
| 20260506144052 | 69 | 135 | 8.0 | 13.0 | 0.00 | 0.19 | 0.19 | 30 | 1009.4 |
| 20260506143551 | 68 | 135 | 7.0 | 9.0 | 0.00 | 0.19 | 0.19 | 30 | 1009.5 |
| 20260506143051 | 68 | 135 | 13.0 | 20.0 | 0.00 | 0.19 | 0.19 | 30 | 1009.4 |
| 20260506142551 | 68 | 135 | 7.0 | 10.0 | 0.00 | 0.19 | 0.19 | 31 | 1009.6 |
| 20260506142050 | 67 | 135 | 17.0 | 25.0 | 0.00 | 0.19 | 0.19 | 30 | 1009.7 |
| 20260506141551 | 66 | 135 | 14.0 | 23.0 | 0.00 | 0.19 | 0.19 | 31 | 1009.8 |
| 20260506141050 | 66 | 135 | 8.0 | 12.0 | 0.00 | 0.19 | 0.19 | 32 | 1009.8 |
| 20260506140552 | 66 | 135 | 10.0 | 17.0 | 0.00 | 0.19 | 0.19 | 32 | 1009.8 |
| 20260506140051 | 67 | 135 | 7.0 | 10.0 | 0.00 | 0.19 | 0.19 | 32 | 1009.8 |
| 20260506135551 | 67 | 135 | 10.0 | 20.0 | 0.00 | 0.19 | 0.19 | 31 | 1009.9 |
| 20260506135052 | 68 | 135 | 13.0 | 21.0 | 0.00 | 0.19 | 0.19 | 31 | 1009.6 |
| 20260506134551 | 69 | 135 | 12.0 | 17.0 | 0.00 | 0.19 | 0.19 | 30 | 1009.5 |
| 20260506134050 | 70 | 135 | 12.0 | 15.0 | 0.00 | 0.19 | 0.19 | 30 | 1009.5 |
| 20260506133552 | 71 | 135 | 3.0 | 10.0 | 0.00 | 0.19 | 0.19 | 32 | 1009.5 |
| 20260506133051 | 70 | 135 | 8.0 | 12.0 | 0.00 | 0.19 | 0.19 | 30 | 1009.6 |
| 20260506132551 | 70 | 151 | 5.0 | 15.0 | 0.00 | 0.19 | 0.19 | 30 | 1009.5 |
| 20260506132052 | 71 | 147 | 1.0 | 2.0 | 0.00 | 0.19 | 0.19 | 31 | 1009.6 |
| 20260506131551 | 69 | 135 | 7.0 | 8.0 | 0.00 | 0.19 | 0.19 | 31 | 1009.7 |
| 20260506131050 | 69 | 152 | 8.0 | 10.0 | 0.00 | 0.19 | 0.19 | 31 | 1009.7 |
| 20260506130552 | 70 | 135 | 8.0 | 10.0 | 0.00 | 0.19 | 0.19 | 37 | 1009.7 |
| 20260506130051 | 70 | 135 | 9.0 | 10.0 | 0.00 | 0.19 | 0.19 | 45 | 1009.9 |
| 20260506125551 | 69 | 135 | 3.0 | 5.0 | 0.00 | 0.19 | 0.19 | 50 | 1009.8 |
| 20260506125052 | 69 | 135 | 8.0 | 10.0 | 0.00 | 0.19 | 0.19 | 50 | 1009.9 |
| 20260506124551 | 68 | 139 | 2.0 | 5.0 | 0.00 | 0.19 | 0.19 | 50 | 1009.7 |
| 20260506124051 | 67 | 121 | 2.0 | 6.0 | 0.00 | 0.19 | 0.19 | 52 | 1009.7 |
| 20260506123550 | 67 | 143 | 3.0 | 5.0 | 0.00 | 0.19 | 0.19 | 54 | 1009.8 |
| 20260506123051 | 65 | 141 | 2.0 | 3.0 | 0.00 | 0.19 | 0.19 | 54 | 1009.9 |
| 20260506122552 | 65 | 135 | 3.0 | 5.0 | 0.00 | 0.19 | 0.19 | 55 | 1009.8 |
| 20260506122052 | 65 | 135 | 2.0 | 3.0 | 0.00 | 0.19 | 0.19 | 53 | 1009.7 |
| 20260506121551 | 65 | 135 | 5.0 | 6.0 | 0.00 | 0.19 | 0.19 | 55 | 1009.7 |
| 20260506121051 | 65 | 132 | 5.0 | 6.0 | 0.00 | 0.19 | 0.19 | 54 | 1009.5 |
| 20260506120551 | 66 | 158 | 6.0 | 10.0 | 0.00 | 0.19 | 0.19 | 53 | 1009.5 |
| 20260506120050 | 66 | 158 | 2.0 | 3.0 | 0.00 | 0.20 | 0.19 | 55 | 1009.5 |
| 20260506115552 | 65 | 119 | 3.0 | 7.0 | 0.00 | 0.20 | 0.19 | 55 | 1009.4 |
| 20260506115051 | 65 | 117 | 5.0 | 6.0 | 0.00 | 0.20 | 0.19 | 53 | 1009.4 |
| 20260506114551 | 66 | 136 | 7.0 | 9.0 | 0.00 | 0.20 | 0.19 | 52 | 1009.2 |
| 20260506114052 | 67 | 117 | 7.0 | 10.0 | 0.00 | 0.20 | 0.19 | 53 | 1009.2 |
| 20260506113551 | 67 | 117 | 7.0 | 10.0 | 0.00 | 0.20 | 0.19 | 51 | 1009.2 |
| 20260506113051 | 67 | 123 | 5.0 | 7.0 | 0.00 | 0.20 | 0.19 | 52 | 1009.3 |
| 20260506112550 | 66 | 152 | 7.0 | 9.0 | 0.00 | 0.20 | 0.19 | 53 | 1009.2 |
| 20260506112052 | 65 | 135 | 5.0 | 8.0 | 0.00 | 0.20 | 0.19 | 52 | 1009.2 |
| 20260506111551 | 66 | 120 | 9.0 | 12.0 | 0.00 | 0.20 | 0.19 | 53 | 1009.2 |
| 20260506111051 | 66 | 114 | 8.0 | 10.0 | 0.00 | 0.20 | 0.19 | 52 | 1009.2 |
| 20260506110551 | 67 | 121 | 7.0 | 8.0 | 0.00 | 0.20 | 0.19 | 52 | 1009.3 |
| 20260506110052 | 67 | 135 | 7.0 | 8.0 | 0.00 | 0.20 | 0.19 | 51 | 1009.4 |
| 20260506105551 | 67 | 152 | 3.0 | 6.0 | 0.00 | 0.20 | 0.19 | 51 | 1009.5 |
| 20260506105052 | 67 | 135 | 3.0 | 6.0 | 0.00 | 0.20 | 0.19 | 53 | 1009.6 |
| 20260506104551 | 67 | 116 | 5.0 | 7.0 | 0.00 | 0.20 | 0.19 | 51 | 1009.5 |
| 20260506104051 | 68 | 144 | 2.0 | 3.0 | 0.00 | 0.20 | 0.19 | 53 | 1009.6 |
| 20260506103551 | 66 | 135 | 3.0 | 5.0 | 0.00 | 0.20 | 0.19 | 51 | 1009.7 |
| 20260506103051 | 67 | 135 | 2.0 | 5.0 | 0.00 | 0.20 | 0.19 | 52 | 1009.9 |
| 20260506102550 | 66 | 146 | 3.0 | 6.0 | 0.00 | 0.20 | 0.19 | 54 | 1009.8 |
| 20260506102052 | 67 | 151 | 5.0 | 6.0 | 0.00 | 0.20 | 0.19 | 52 | 1009.9 |
| 20260506101550 | 67 | 135 | 3.0 | 3.0 | 0.00 | 0.20 | 0.19 | 50 | 1010.0 |
| 20260506101051 | 66 | 135 | 2.0 | 3.0 | 0.00 | 0.20 | 0.19 | 51 | 1010.1 |
| 20260506100551 | 65 | 136 | 3.0 | 6.0 | 0.00 | 0.20 | 0.19 | 56 | 1010.2 |
| 20260506100051 | 64 | 112 | 3.0 | 6.0 | 0.00 | 0.20 | 0.19 | 58 | 1010.2 |
| 20260506095551 | 64 | 135 | 2.0 | 3.0 | 0.00 | 0.20 | 0.19 | 56 | 1010.5 |
| 20260506095052 | 64 | 132 | 1.0 | 3.0 | 0.00 | 0.20 | 0.19 | 59 | 1010.4 |
| 20260506094551 | 63 | 112 | 1.0 | 1.0 | 0.00 | 0.20 | 0.19 | 60 | 1010.5 |
| 20260506094051 | 63 | 146 | 2.0 | 3.0 | 0.00 | 0.20 | 0.19 | 63 | 1010.5 |
| 20260506093552 | 62 | 112 | 2.0 | 3.0 | 0.00 | 0.20 | 0.19 | 63 | 1010.6 |
| 20260506093051 | 62 | 144 | 2.0 | 3.0 | 0.00 | 0.20 | 0.19 | 64 | 1010.6 |
| 20260506092551 | 61 | 135 | 1.0 | 2.0 | 0.00 | 0.20 | 0.19 | 61 | 1010.6 |
| 20260506092050 | 62 | 149 | 2.0 | 3.0 | 0.00 | 0.20 | 0.19 | 66 | 1010.7 |
| 20260506091552 | 61 | 134 | 2.0 | 3.0 | 0.00 | 0.20 | 0.19 | 66 | 1010.7 |
| 20260506091051 | 61 | 129 | 1.0 | 2.0 | 0.00 | 0.20 | 0.19 | 68 | 1010.7 |
| 20260506090552 | 61 | 158 | 1.0 | 1.0 | 0.00 | 0.20 | 0.19 | 65 | 1010.8 |
| 20260506090051 | 60 | 135 | 1.0 | 3.0 | 0.00 | 0.20 | 0.19 | 62 | 1010.9 |
| 20260506085551 | 61 | 135 | 3.0 | 6.0 | 0.00 | 0.20 | 0.19 | 61 | 1010.8 |
| 20260506085052 | 61 | 135 | 3.0 | 6.0 | 0.00 | 0.20 | 0.19 | 62 | 1010.9 |
| 20260506084551 | 62 | 135 | 3.0 | 6.0 | 0.00 | 0.20 | 0.19 | 68 | 1010.8 |
| 20260506084052 | 61 | 135 | 2.0 | 3.0 | 0.01 | 0.20 | 0.19 | 70 | 1010.9 |
| 20260506083551 | 59 | 142 | 2.0 | 3.0 | 0.01 | 0.20 | 0.19 | 70 | 1010.9 |
| 20260506083051 | 58 | 135 | 2.0 | 6.0 | 0.01 | 0.20 | 0.19 | 69 | 1011.0 |
| 20260506082552 | 58 | 135 | 6.0 | 8.0 | 0.01 | 0.20 | 0.19 | 69 | 1011.1 |
| 20260506082052 | 58 | 135 | 3.0 | 5.0 | 0.01 | 0.20 | 0.19 | 71 | 1011.0 |
| 20260506081550 | 58 | 135 | 3.0 | 6.0 | 0.01 | 0.20 | 0.19 | 73 | 1011.0 |
| 20260506081053 | 57 | 135 | 3.0 | 5.0 | 0.01 | 0.20 | 0.19 | 78 | 1011.1 |
| 20260506080551 | 56 | 135 | 5.0 | 6.0 | 0.01 | 0.20 | 0.19 | 80 | 1011.2 |
| 20260506073053 | 54 | 135 | 1.0 | 2.0 | 0.00 | 0.19 | 0.18 | 90 | 1011.1 |
| 20260506072551 | 54 | 135 | 0.0 | 0.0 | 0.00 | 0.19 | 0.18 | 89 | 1011.1 |
| 20260506072052 | 54 | 135 | 1.0 | 2.0 | 0.00 | 0.19 | 0.18 | 89 | 1011.1 |
| 20260506071552 | 54 | 135 | 3.0 | 6.0 | 0.00 | 0.19 | 0.18 | 89 | 1011.0 |
| 20260506071052 | 54 | 135 | 3.0 | 5.0 | 0.00 | 0.19 | 0.18 | 86 | 1011.0 |